This is the latest recevied weather packets stored in our database for station/object SP9EPI-13. If no packets are shown the sender has not sent any weather packets the latest 10 day(s).
| Time | Temp. | Humidity | Pressure | Rain* | Wind** | Luminosity | Snow |
|---|---|---|---|---|---|---|---|
| 1777183200 | 7.78° C | 52% | 1011.8 hPa | - | - | - | - |
| 1777182601 | 7.78° C | 58% | 1011.8 hPa | - | - | - | - |
| 1777182001 | 7.78° C | 58% | 1011.8 hPa | - | - | - | - |
| 1777181401 | 7.78° C | 56% | 1011.5 hPa | - | - | - | - |
| 1777180800 | 7.78° C | 55% | 1011.1 hPa | - | - | - | - |
| 1777180201 | 7.78° C | 57% | 1010.8 hPa | - | - | - | - |
| 1777179600 | 7.22° C | 58% | 1010.5 hPa | - | - | - | - |
| 1777179001 | 7.78° C | 57% | 1010.5 hPa | - | - | - | - |
| 1777178401 | 7.78° C | 55% | 1010.5 hPa | - | - | - | - |
| 1777177801 | 7.78° C | 56% | 1009.8 hPa | - | - | - | - |
| 1777177201 | 7.78° C | 55% | 1009.4 hPa | - | - | - | - |
| 1777176601 | 7.78° C | 55% | 1009.4 hPa | - | - | - | - |
| 1777176000 | 7.78° C | 53% | 1008.8 hPa | - | - | - | - |
| 1777175401 | 7.78° C | 52% | 1008.8 hPa | - | - | - | - |
| 1777174801 | 7.78° C | 52% | 1008.4 hPa | - | - | - | - |
| 1777174204 | 7.78° C | 52% | 1008.1 hPa | - | - | - | - |
| 1777173601 | 7.78° C | 54% | 1007.7 hPa | - | - | - | - |
| 1777173001 | 8.89° C | 55% | 1007.4 hPa | - | - | - | - |
| 1777172401 | 8.89° C | 55% | 1006.4 hPa | - | - | - | - |
| 1777171801 | 10° C | 56% | 1006.4 hPa | - | - | - | - |
| 1777171201 | 11.11° C | 55% | 1005.7 hPa | - | - | - | - |
| 1777170600 | 11.11° C | 58% | 1005.4 hPa | - | - | - | - |
| 1777170001 | 12.22° C | 57% | 1005 hPa | - | - | - | - |
| 1777169401 | 12.22° C | 57% | 1005 hPa | - | - | - | - |
| 1777168801 | 12.22° C | 55% | 1004.7 hPa | - | - | - | - |
* Rain since midnight (hover to see other rain measurements)
** Current wind speed in m/s (hover to see current wind gust speed)